{"data":{"norad_id":58671,"epoch":"2026-09-20T14:30:22.114368Z","epoch_age_seconds":140683,"freshness":"FRESH","line1":"1 58671U 23211E   26263.60442262 -.00002082  00000+0 -66147-4 0  9992","line2":"2 58671  43.0038  64.5575 0001400 271.3601  88.7090 15.27584188152272","mean_motion":15.27584188,"eccentricity":0.00014,"inclination_deg":43.0038,"raan_deg":64.5575,"arg_perigee_deg":271.3601,"mean_anomaly_deg":88.709,"bstar":-6.6147e-5,"rev_number":15227,"period_min":94.266490273464,"perigee_km":482.07599139188,"apogee_km":483.99711998747,"semimajor_km":6861.1735556897,"source":"CELESTRAK","updated_at":"2026-09-21T09:00:33.942561Z"}}